Regional Weather Roundup
Issued by NWS

Home | Current Version | Previous Version | Graphics & Text | Print | Product List | Glossary On
Versions: 1 2 3 4 5 6 7 8 9 10 11 12 13 14 15 16 17 18 19 20 21 22 23 24 25 26 27 28 29 30 31 32 33 34 35 36 37 38 39 40 41 42 43 44 45 46 47 48 49 50
000
ASUS44 KMEG 201110
RWRTN
TENNESSEE HOURLY STATE WEATHER ROUNDUP
NATIONAL WEATHER SERVICE MEMPHIS TN
600 AM CDT MON OCT 20 2014

TNZ002-004-019-021-049-052-054-088>092-201200-
WEST TENNESSEE

CITY           SKY/WX    TMP DP  RH WIND       PRES   REMARKS
MEMPHIS INTL   PTCLDY    50  46  86 CALM      30.07S
NWS MEMPHIS      N/A     46 N/A N/A MISG        N/A
JACKSON        PTCLDY    45  43  93 CALM      30.08R
DYERSBURG      MOCLDY    50  39  66 CALM      30.08S
UNION CITY     CLEAR     43  43 100 SE3       30.05F
PARIS          CLEAR     45  41  87 CALM      30.06F
HUNTINGDON     PTCLDY    43  42  96 CALM      30.08S
LEXINGTON      CLOUDY    39  39 100 CALM      30.07S VSB 3/4
SAVANNAH       CLOUDY    39  39 100 CALM      30.09S
$$

TNZ008-025-027-028-033-062-065-066-201200-
NORTH MIDDLE TENNESSEE

CITY           SKY/WX    TMP DP  RH WIND       PRES   REMARKS
NASHVILLE      CLEAR     44  43  96 CALM      30.09R
CLARKSVILLE    PTCLDY    43  42  97 SE5       30.07S FOG
SMYRNA         CLEAR     39  39 100 CALM      30.11R FOG
COOKEVILLE     CLEAR     39  37  93 CALM      30.09R
CROSSVILLE     PTCLDY    45  41  86 W3        30.10R
$$

TNZ061-075-076-078-094-096-097-201200-
SOUTH MIDDLE TENNESSEE

CITY           SKY/WX    TMP DP  RH WIND       PRES   REMARKS
FAYETTEVILLE   CLEAR     45  43  93 CALM      30.09R
TULLAHOMA      CLEAR     39  37  93 CALM      30.10R
WINCHESTER     CLEAR     43  41  93 CALM      30.10R
MCMINNVILLE    MOCLDY    39  39 100 CALM      30.09R VSB 1/2
COLUMBIA       PTCLDY   N/A N/A N/A CALM      30.08R
SHELBYVILLE    CLEAR     43  43 100 CALM      30.10R
$$

TNZ017-018-042-046-047-201200-
NORTHEAST TENNESSEE

CITY           SKY/WX    TMP DP  RH WIND       PRES   REMARKS
TRI CITIES     CLOUDY    40  39  97 CALM      30.08F
ELIZABETHTON   SUNNY     41  39  93 NE3       30.09F
$$

TNZ012-013-036-069-073-074-201200-
CENTRAL EAST TENNESSEE

CITY           SKY/WX    TMP DP  RH WIND       PRES   REMARKS
KNOXVILLE      FOG       47  47 100 CALM      30.10R VSB 1/16
OAK RIDGE      PTCLDY    44  42  93 CALM      30.11R
GATLINBURG     SUNNY     43  41  93 CALM      30.09R
MORRISTOWN     SUNNY     45  43  93 CALM      30.10R
$$

TNZ083-085-099-201200-
SOUTHEAST TENNESSEE

CITY           SKY/WX    TMP DP  RH WIND       PRES   REMARKS
CHATTANOOGA    PTCLDY    45  43  93 CALM      30.11R
$$

SKY/WX REPORTED AS FAIR MEANS FEW OR NO CLOUDS BELOW
12 THOUSAND FEET.



USA.gov is the U.S. government's official web portal to all federal, state and local government web resources and services.